When you browse on this site, cookies collect data to enhance your experience and personalize the content and advertising you see.
Visit our Privacy Policy to learn more. By continuing to use the site, you agree to this use of cookies and data.
  • Em Portugal
  • Lista de países
  • Para 7 dias
  • Temperatura da água
  • Mapas de satélite
  • Mapa do tempo
  • Widgets de tempo
  • user-avatar
    Iniciar Sessão

    Previsão horária em Igls

    Hoje, 17 Fevereiro, Domingo

    Tempo Temperatura Precipitação Vento Pressão Humidade
    00:00 +2°C° 0 mm 2 m/s 691 mmHg 45%
    01:00 +2°C° 0 mm 2 m/s 691 mmHg 45%
    02:00 +2°C° 0 mm 2 m/s 691 mmHg 44%
    03:00 +2°C° 0 mm 2 m/s 691 mmHg 44%
    04:00 +2°C° 0 mm 2 m/s 691 mmHg 43%
    05:00 +2°C° 0 mm 2 m/s 691 mmHg 43%
    06:00 +1°C° 0 mm 2 m/s 691 mmHg 42%
    07:00 +1°C° 0 mm 2 m/s 690 mmHg 42%
    08:00 +3°C° 0 mm 2 m/s 691 mmHg 50%
    09:00 +5°C° 0 mm 2 m/s 691 mmHg 59%
    10:00 +7°C° 0 mm 2 m/s 691 mmHg 67%
    11:00 +9°C° 0 mm 1 m/s 690 mmHg 76%
    12:00 +10°C° 0 mm 1 m/s 690 mmHg 84%
    13:00 +10°C° 0 mm 1 m/s 690 mmHg 92%
    14:00 +10°C° 0 mm 1 m/s 689 mmHg 89%
    15:00 +10°C° 0 mm 1 m/s 689 mmHg 85%
    16:00 +10°C° 0 mm 1 m/s 689 mmHg 82%
    17:00 +7°C° 0 mm 2 m/s 689 mmHg 74%
    18:00 +5°C° 0 mm 2 m/s 689 mmHg 65%
    19:00 +4°C° 0 mm 2 m/s 689 mmHg 57%
    20:00 +3°C° 0 mm 2 m/s 689 mmHg 55%
    21:00 +3°C° 0 mm 2 m/s 689 mmHg 53%
    22:00 +2°C° 0 mm 2 m/s 689 mmHg 51%
    23:00 +2°C° 0 mm 2 m/s 689 mmHg 50%

    Amanhã, 18 Fevereiro, Segunda-feira

    Tempo Temperatura Precipitação Vento Pressão Humidade
    00:00 +2°C° 0 mm 2 m/s 689 mmHg 49%
    01:00 +2°C° 0 mm 2 m/s 689 mmHg 49%
    02:00 +1°C° 0 mm 2 m/s 688 mmHg 48%
    03:00 +1°C° 0 mm 2 m/s 688 mmHg 47%
    04:00 0°C° 0 mm 3 m/s 688 mmHg 47%
    05:00 +1°C° 0 mm 2 m/s 687 mmHg 46%
    06:00 +1°C° 0 mm 2 m/s 687 mmHg 45%
    07:00 +1°C° 0 mm 2 m/s 687 mmHg 45%
    08:00 +3°C° 0 mm 2 m/s 688 mmHg 51%
    09:00 +5°C° 0 mm 2 m/s 688 mmHg 58%
    10:00 +7°C° 0 mm 2 m/s 688 mmHg 65%
    11:00 +7°C° 0 mm 2 m/s 688 mmHg 71%
    12:00 +8°C° 0 mm 2 m/s 687 mmHg 78%
    13:00 +10°C° 0 mm 1 m/s 687 mmHg 85%
    14:00 +10°C° 0 mm 1 m/s 687 mmHg 85%
    15:00 +9°C° 0 mm 1 m/s 686 mmHg 85%
    16:00 +9°C° 0 mm 1 m/s 686 mmHg 86%
    17:00 +8°C° 0 mm 1 m/s 686 mmHg 79%
    18:00 +5°C° 0 mm 2 m/s 686 mmHg 73%
    19:00 +3°C° 0 mm 2 m/s 686 mmHg 66%
    20:00 +3°C° 0 mm 2 m/s 686 mmHg 64%
    21:00 +3°C° 0 mm 2 m/s 687 mmHg 61%
    22:00 +2°C° 0 mm 2 m/s 687 mmHg 59%
    23:00 +2°C° 0 mm 2 m/s 687 mmHg 58%

    Depois de amanhã, 19 Fevereiro, Terça-feira

    Tempo Temperatura Precipitação Vento Pressão Humidade
    00:00 +2°C° 0 mm 2 m/s 687 mmHg 57%
    01:00 +2°C° 0 mm 2 m/s 687 mmHg 57%
    02:00 +2°C° 0 mm 2 m/s 686 mmHg 56%
    03:00 +2°C° 0 mm 2 m/s 686 mmHg 56%
    04:00 +1°C° 0 mm 2 m/s 686 mmHg 56%
    05:00 +1°C° 0 mm 2 m/s 686 mmHg 57%
    06:00 +2°C° 0 mm 1 m/s 686 mmHg 57%
    07:00 +2°C° 0 mm 1 m/s 686 mmHg 58%
    08:00 +3°C° 0 mm 1 m/s 687 mmHg 63%
    09:00 +5°C° 0 mm 1 m/s 687 mmHg 68%
    10:00 +6°C° 0 mm 0 m/s 687 mmHg 73%
    11:00 +7°C° 0 mm 0 m/s 687 mmHg 73%
    12:00 +7°C° 0 mm 0 m/s 687 mmHg 73%
    13:00 +8°C° 0 mm 0 m/s 687 mmHg 74%
    14:00 +7°C° 0 mm 0 m/s 687 mmHg 77%
    15:00 +8°C° 0 mm 1 m/s 686 mmHg 80%
    16:00 +8°C° 0 mm 1 m/s 686 mmHg 83%
    17:00 +6°C° 0 mm 1 m/s 686 mmHg 84%
    18:00 +4°C° 0 mm 1 m/s 687 mmHg 85%
    19:00 +3°C° 0 mm 1 m/s 687 mmHg 86%
    20:00 +2°C° 0 mm 1 m/s 687 mmHg 86%
    21:00 +2°C° 0 mm 1 m/s 688 mmHg 85%
    22:00 +2°C° 0 mm 1 m/s 688 mmHg 85%
    23:00 +2°C° 0 mm 1 m/s 688 mmHg 83%

    20 Fevereiro, Quarta-feira

    Tempo Temperatura Precipitação Vento Pressão Humidade
    00:00 +1°C° 0 mm 1 m/s 688 mmHg 80%
    01:00 +1°C° 0 mm 1 m/s 688 mmHg 78%
    02:00 +1°C° 0 mm 1 m/s 688 mmHg 75%
    03:00 +1°C° 0 mm 1 m/s 688 mmHg 71%
    04:00 +1°C° 0 mm 1 m/s 688 mmHg 68%
    05:00 +1°C° 0 mm 1 m/s 688 mmHg 66%
    06:00 +1°C° 0 mm 1 m/s 688 mmHg 64%
    07:00 +1°C° 0 mm 1 m/s 688 mmHg 62%
    08:00 +3°C° 0 mm 1 m/s 689 mmHg 64%
    09:00 +4°C° 0 mm 1 m/s 689 mmHg 66%
    10:00 +5°C° 0 mm 0 m/s 690 mmHg 67%
    11:00 +6°C° 0 mm 0 m/s 689 mmHg 68%
    12:00 +7°C° 0 mm 0 m/s 689 mmHg 70%
    13:00 +8°C° 0 mm 0 m/s 689 mmHg 71%
    14:00 +8°C° 0 mm 0 m/s 689 mmHg 74%
    15:00 +7°C° 0 mm 0 m/s 689 mmHg 77%
    16:00 +7°C° 0 mm 0 m/s 689 mmHg 80%
    17:00 +6°C° 0 mm 1 m/s 689 mmHg 82%
    18:00 +5°C° 0 mm 1 m/s 689 mmHg 84%
    19:00 +3°C° 0 mm 1 m/s 689 mmHg 86%
    20:00 +3°C° 0 mm 1 m/s 690 mmHg 85%
    21:00 +3°C° 0 mm 1 m/s 690 mmHg 84%
    22:00 +3°C° 0 mm 1 m/s 690 mmHg 83%
    23:00 +3°C° 0 mm 1 m/s 690 mmHg 81%

    21 Fevereiro, Quinta-feira

    Tempo Temperatura Precipitação Vento Pressão Humidade
    00:00 +3°C° 0 mm 1 m/s 690 mmHg 79%
    01:00 +3°C° 0 mm 1 m/s 690 mmHg 77%
    02:00 +3°C° 0 mm 1 m/s 690 mmHg 75%
    03:00 +3°C° 0 mm 1 m/s 690 mmHg 73%
    04:00 +3°C° 0 mm 1 m/s 690 mmHg 71%
    05:00 +3°C° 0 mm 1 m/s 690 mmHg 69%
    06:00 +3°C° 0 mm 1 m/s 690 mmHg 68%
    07:00 +3°C° 0 mm 1 m/s 690 mmHg 66%
    08:00 +4°C° 0 mm 1 m/s 691 mmHg 68%
    09:00 +6°C° 0 mm 1 m/s 691 mmHg 70%
    10:00 +7°C° 0 mm 0 m/s 691 mmHg 72%
    11:00 +8°C° 0 mm 1 m/s 691 mmHg 73%
    12:00 +9°C° 0 mm 1 m/s 691 mmHg 75%
    13:00 +9°C° 0 mm 1 m/s 691 mmHg 76%
    14:00 +9°C° 0 mm 1 m/s 691 mmHg 79%
    15:00 +9°C° 0 mm 1 m/s 690 mmHg 81%
    16:00 +8°C° 0 mm 1 m/s 690 mmHg 83%
    17:00 +7°C° 0 mm 1 m/s 690 mmHg 84%
    18:00 +6°C° 0 mm 1 m/s 690 mmHg 85%
    19:00 +4°C° 0 mm 1 m/s 691 mmHg 85%
    20:00 +4°C° 0 mm 1 m/s 691 mmHg 84%
    21:00 +4°C° 0 mm 1 m/s 691 mmHg 84%
    22:00 +3°C° 0 mm 1 m/s 691 mmHg 83%
    23:00 +3°C° 0 mm 1 m/s 691 mmHg 82%

    22 Fevereiro, Sexta-feira

    Tempo Temperatura Precipitação Vento Pressão Humidade
    00:00 +3°C° 0 mm 1 m/s 691 mmHg 81%
    01:00 +2°C° 0 mm 2 m/s 691 mmHg 79%
    02:00 +3°C° 0 mm 1 m/s 691 mmHg 76%
    03:00 +3°C° 0 mm 1 m/s 691 mmHg 73%
    04:00 +3°C° 0 mm 1 m/s 691 mmHg 70%
    05:00 +3°C° 0 mm 1 m/s 691 mmHg 71%
    06:00 +3°C° 0 mm 1 m/s 691 mmHg 72%
    07:00 +2°C° 0 mm 1 m/s 691 mmHg 74%
    08:00 +3°C° 0 mm 2 m/s 691 mmHg 76%
    09:00 +4°C° 0 mm 2 m/s 691 mmHg 78%
    10:00 +5°C° 0 mm 2 m/s 691 mmHg 80%
    11:00 +6°C° 0.1 mm 2 m/s 691 mmHg 82%
    12:00 +6°C° 0.1 mm 2 m/s 691 mmHg 84%
    13:00 +6°C° 0.1 mm 2 m/s 690 mmHg 86%
    14:00 +6°C° 0.2 mm 2 m/s 690 mmHg 88%
    15:00 +5°C° 0.2 mm 2 m/s 690 mmHg 89%
    16:00 +5°C° 0.2 mm 2 m/s 690 mmHg 91%
    17:00 +4°C° 0.3 mm 2 m/s 691 mmHg 92%
    18:00 +4°C° 0.3 mm 2 m/s 691 mmHg 93%
    19:00 +3°C° 0.3 mm 2 m/s 691 mmHg 94%
    20:00 +3°C° 0.3 mm 2 m/s 692 mmHg 95%
    21:00 +3°C° 0.3 mm 2 m/s 692 mmHg 95%
    22:00 +3°C° 0.3 mm 2 m/s 692 mmHg 95%
    23:00 +3°C° 0.1 mm 1 m/s 692 mmHg 96%
    Mostrar mais